W4SNA-3 Weather Reports


Display with metric or nautical units.
time (UTC)temp
F
wind
direction
speed
MPH
gust
MPH
rain 1hr
in
rain 24hr
in
rain mn
in
humidity
%
barometer
mb
20260505221557 65 0 0.0 8.0 0.00 0.00 0.00 51 1011.9
20260505221056 65 0 0.0 6.0 0.00 0.00 0.00 51 1011.9
20260505220555 65 255 1.0 6.0 0.00 0.00 0.00 51 1011.7
20260505220054 65 0 0.0 3.0 0.00 0.00 0.00 52 1011.8
20260505215554 65 0 0.0 3.0 0.00 0.00 0.00 51 1011.8
20260505215054 65 0 0.0 4.0 0.00 0.00 0.00 51 1012.7
20260505214630 66 0 0.0 4.0 0.00 0.00 0.00 49 1012.6
20260505214055 66 0 0.0 3.0 0.00 0.00 0.00 49 1012.6
20260505213555 67 0 0.0 3.0 0.00 0.00 0.00 49 1012.6
20260505213054 67 0 0.0 2.0 0.00 0.00 0.00 51 1012.8
20260505212114 67 0 0.0 4.0 0.00 0.00 0.00 51 1012.9
20260505211613 67 0 0.0 4.0 0.00 0.00 0.00 49 1012.8
20260505211113 67 0 0.0 4.0 0.00 0.00 0.00 49 1012.7
20260505210613 67 0 0.0 4.0 0.00 0.00 0.00 48 1012.9
20260505205625 68 222 1.0 6.0 0.00 0.00 0.00 47 1012.7
20260505205125 68 0 0.0 4.0 0.00 0.00 0.00 49 1012.9
20260505204625 69 0 0.0 3.0 0.00 0.00 0.00 46 1012.8
20260505204125 69 0 0.0 1.0 0.00 0.00 0.00 44 1012.7
20260505203312 71 268 1.0 4.0 0.00 0.00 0.00 46 1012.8
20260505202817 71 0 0.0 3.0 0.00 0.00 0.00 50 1013.0
20260505202312 71 0 0.0 9.0 0.00 0.00 0.00 49 1012.9
20260505201813 70 306 1.0 9.0 0.00 0.00 0.00 45 1012.9
20260505201426 70 0 0.0 4.0 0.00 0.00 0.00 43 1012.9
20260505200812 71 0 0.0 2.0 0.00 0.00 0.00 43 1013.0
20260505200326 70 0 0.0 3.0 0.00 0.00 0.00 47 1013.0
20260505195815 70 279 1.0 5.0 0.00 0.00 0.00 44 1013.1
20260505195312 70 0 0.0 5.0 0.00 0.00 0.00 42 1013.1
20260505194812 71 239 1.0 4.0 0.00 0.00 0.00 43 1013.4
20260505194314 71 0 0.0 8.0 0.00 0.00 0.00 44 1013.2
20260505193812 71 246 1.0 8.0 0.00 0.00 0.00 43 1013.4
20260505193312 72 241 1.0 4.0 0.00 0.00 0.00 42 1013.5
20260505192614 71 296 1.0 3.0 0.00 0.00 0.00 43 1013.6
20260505192114 71 0 0.0 4.0 0.00 0.00 0.00 46 1013.6
20260505191614 70 105 1.0 4.0 0.00 0.00 0.00 46 1013.7
20260505191044 70 0 0.0 4.0 0.00 0.00 0.00 47 1013.7
20260505190543 70 166 1.0 3.0 0.00 0.00 0.00 41 1013.7
20260505190043 70 0 0.0 3.0 0.00 0.00 0.00 44 1013.8
20260505185543 70 0 0.0 6.0 0.00 0.00 0.00 43 1013.9
20260505185043 70 0 0.0 6.0 0.00 0.00 0.00 43 1014.1
20260505184543 70 0 0.0 6.0 0.00 0.00 0.00 45 1014.0
20260505184043 70 0 0.0 10.0 0.00 0.00 0.00 43 1014.3
20260505183543 71 127 1.0 10.0 0.00 0.00 0.00 40 1014.3
20260505183047 71 263 1.0 4.0 0.00 0.00 0.00 41 1014.2
20260505182543 71 0 0.0 2.0 0.00 0.00 0.00 45 1014.2
20260505182043 71 0 0.0 2.0 0.00 0.00 0.00 46 1014.4
20260505181459 72 0 0.0 3.0 0.00 0.00 0.00 45 1014.6
20260505181003 72 0 0.0 13.0 0.00 0.00 0.00 45 1013.7
20260505180501 73 0 0.0 13.0 0.00 0.00 0.00 45 1013.8
20260505180018 72 0 0.0 4.0 0.00 0.00 0.00 49 1013.8
20260505175521 71 0 0.0 3.0 0.00 0.00 0.00 49 1013.8
20260505174959 71 0 0.0 3.0 0.00 0.00 0.00 48 1013.8
20260505174459 71 0 0.0 5.0 0.00 0.00 0.00 48 1013.6
20260505173959 71 0 0.0 5.0 0.00 0.00 0.00 48 1013.7
20260505173459 71 0 0.0 2.0 0.00 0.00 0.00 51 1013.8
20260505172959 70 0 0.0 3.0 0.00 0.00 0.00 53 1013.8
20260505172459 70 0 0.0 3.0 0.00 0.00 0.00 51 1013.8
20260505171959 70 0 0.0 2.0 0.00 0.00 0.00 48 1013.9
20260505171459 70 0 0.0 3.0 0.00 0.00 0.00 50 1013.9
20260505170959 70 0 0.0 3.0 0.00 0.00 0.00 55 1013.9
20260505170459 70 0 0.0 2.0 0.00 0.00 0.00 50 1014.1
20260505170007 70 0 0.0 2.0 0.00 0.00 0.00 52 1014.2
20260505165459 70 0 0.0 2.0 0.00 0.00 0.00 50 1014.3
20260505164959 70 0 0.0 2.0 0.00 0.00 0.00 53 1014.2
20260505164503 70 0 0.0 2.0 0.00 0.00 0.00 53 1014.2
20260505163959 70 0 0.0 2.0 0.00 0.00 0.00 58 1014.2
20260505163459 70 0 0.0 2.0 0.00 0.00 0.00 55 1014.4
20260505163007 70 0 0.0 2.0 0.00 0.00 0.00 53 1014.5
20260505162522 71 0 0.0 2.0 0.00 0.00 0.00 56 1014.6
20260505161959 70 0 0.0 4.0 0.00 0.00 0.00 56 1014.6
20260505161459 70 0 0.0 4.0 0.00 0.00 0.00 52 1014.6
20260505160959 70 0 0.0 2.0 0.00 0.00 0.00 55 1014.5
20260505160459 70 0 0.0 2.0 0.00 0.00 0.00 54 1014.6
20260505153018 70 0 0.0 2.0 0.00 0.00 0.00 55 1014.7
20260505152459 70 0 0.0 3.0 0.00 0.00 0.00 55 1014.9
20260505151959 70 0 0.0 3.0 0.00 0.00 0.00 57 1014.8
20260505151459 69 0 0.0 2.0 0.00 0.00 0.00 60 1015.0
20260505150959 70 0 0.0 2.0 0.00 0.00 0.00 56 1015.1
20260505150527 70 0 0.0 2.0 0.00 0.00 0.00 55 1015.0
20260505140422 69 0 0.0 4.0 0.00 0.00 0.00 51 1014.6
20260505124828 66 0 0.0 1.0 0.00 0.00 0.00 51 1014.7
20260505124328 66 0 0.0 1.0 0.00 0.00 0.00 51 1014.7
20260505123828 65 0 0.0 2.0 0.00 0.00 0.00 50 1014.6
20260505123328 65 0 0.0 2.0 0.00 0.00 0.00 53 1014.7
20260505122836 64 0 0.0 1.0 0.00 0.00 0.00 53 1014.5
20260505122328 64 0 0.0 1.0 0.00 0.00 0.00 55 1014.6
20260505121828 63 0 0.0 1.0 0.00 0.00 0.00 54 1014.4
20260505121328 62 0 0.0 1.0 0.00 0.00 0.00 55 1014.4
20260505120437 61 0 0.0 1.0 0.00 0.00 0.00 58 1014.3
20260505115941 60 0 0.0 1.0 0.00 0.00 0.00 59 1014.3
20260505115437 59 0 0.0 1.0 0.00 0.00 0.00 61 1014.3
20260505114937 58 0 0.0 1.0 0.00 0.00 0.00 62 1014.3
20260505114452 56 0 0.0 1.0 0.00 0.00 0.00 64 1014.3
20260505113958 55 0 0.0 1.0 0.00 0.00 0.00 67 1014.3
20260505113444 54 0 0.0 1.0 0.00 0.00 0.00 68 1014.3
20260505112937 53 0 0.0 1.0 0.00 0.00 0.00 70 1014.4
20260505112437 52 0 0.0 1.0 0.00 0.00 0.00 71 1014.3
20260505111937 52 0 0.0 1.0 0.00 0.00 0.00 71 1014.3
20260505111500 51 0 0.0 1.0 0.00 0.00 0.00 71 1014.4
20260505110937 51 0 0.0 2.0 0.00 0.00 0.00 71 1014.4
20260505110437 51 0 0.0 4.0 0.00 0.00 0.00 71 1014.3
20260505101937 51 0 0.0 1.0 0.00 0.00 0.00 70 1014.0
20260505101439 51 0 0.0 1.0 0.00 0.00 0.00 70 1014.1
20260505100940 50 0 0.0 3.0 0.00 0.00 0.00 70 1014.1
20260505100438 50 0 0.0 3.0 0.00 0.00 0.00 70 1014.1
20260505095937 50 0 0.0 1.0 0.00 0.00 0.00 70 1013.9
20260505095437 50 0 0.0 1.0 0.00 0.00 0.00 70 1013.9
20260505094939 51 0 0.0 1.0 0.00 0.00 0.00 70 1013.9
20260505094439 51 0 0.0 2.0 0.00 0.00 0.00 70 1013.9
20260505093937 51 0 0.0 2.0 0.00 0.00 0.00 70 1013.9
20260505093442 51 0 0.0 1.0 0.00 0.00 0.00 69 1013.8
20260505092937 51 0 0.0 0.0 0.00 0.00 0.00 69 1013.9
20260505092452 51 0 0.0 0.0 0.00 0.00 0.00 68 1013.9
20260505091937 51 0 0.0 0.0 0.00 0.00 0.00 68 1013.9
20260505091439 51 0 0.0 0.0 0.00 0.00 0.00 69 1014.0
20260505090937 51 0 0.0 0.0 0.00 0.00 0.00 69 1013.1
20260505090454 51 0 0.0 1.0 0.00 0.00 0.00 69 1013.1
20260505085954 51 0 0.0 1.0 0.00 0.00 0.00 69 1012.9
20260505085455 51 0 0.0 2.0 0.00 0.00 0.00 69 1013.0
20260505084937 51 0 0.0 2.0 0.00 0.00 0.00 69 1012.9
20260505084439 51 0 0.0 3.0 0.00 0.00 0.00 68 1012.7
20260505083937 52 0 0.0 3.0 0.00 0.00 0.00 68 1012.8
20260505083442 52 0 0.0 2.0 0.00 0.00 0.00 67 1012.8
20260505082937 53 0 0.0 2.0 0.00 0.00 0.00 67 1012.8
20260505082515 53 0 0.0 2.0 0.00 0.00 0.00 66 1012.7
20260505081937 52 0 0.0 4.0 0.00 0.00 0.00 67 1012.6
20260505081437 52 0 0.0 4.0 0.00 0.00 0.00 67 1012.4
20260505080937 52 242 1.0 4.0 0.00 0.00 0.00 68 1012.5
20260505080437 52 0 0.0 2.0 0.00 0.00 0.00 68 1012.5
20260505075937 52 0 0.0 2.0 0.00 0.00 0.00 67 1012.5
20260505075143 52 0 0.0 5.0 0.00 0.00 0.00 67 1012.5
20260505074643 52 0 0.0 5.0 0.00 0.00 0.00 66 1012.5
20260505074144 52 0 0.0 3.0 0.00 0.00 0.00 66 1012.5
20260505073642 53 0 0.0 3.0 0.00 0.00 0.00 66 1012.5
20260505073141 53 0 0.0 3.0 0.00 0.00 0.00 66 1012.4
20260505072657 53 0 0.0 3.0 0.00 0.00 0.00 66 1012.4
20260505072143 53 0 0.0 3.0 0.00 0.00 0.00 65 1012.4
20260505071641 53 0 0.0 8.0 0.00 0.00 0.00 65 1012.4
20260505071142 53 0 0.0 8.0 0.00 0.00 0.00 66 1012.3
20260505070641 53 0 0.0 4.0 0.00 0.00 0.00 65 1012.4
20260505070141 53 0 0.0 4.0 0.00 0.00 0.00 66 1012.4
20260505065641 53 0 0.0 3.0 0.00 0.00 0.00 65 1012.5
20260505065141 53 0 0.0 3.0 0.00 0.00 0.00 66 1012.5
20260505064642 53 249 1.0 3.0 0.00 0.00 0.00 65 1012.6
20260505064141 53 0 0.0 4.0 0.00 0.00 0.00 65 1012.6
20260505063657 53 0 0.0 6.0 0.00 0.00 0.00 65 1012.6
20260505063142 53 0 0.0 6.0 0.00 0.00 0.00 65 1012.7
20260505062656 53 0 0.0 5.0 0.00 0.00 0.00 65 1012.6
20260505062145 53 0 0.0 4.0 0.00 0.00 0.00 65 1012.7
20260505061656 53 0 0.0 5.0 0.00 0.00 0.00 65 1012.7
20260505061140 53 0 0.0 5.0 0.00 0.00 0.00 64 1012.7
20260505060642 53 0 0.0 3.0 0.00 0.00 0.00 64 1012.6
20260505060141 54 0 0.0 4.0 0.00 0.00 0.00 64 1012.7
20260505055641 54 0 0.0 4.0 0.00 0.00 0.00 64 1012.7
20260505055140 54 0 0.0 3.0 0.00 0.00 0.00 64 1012.8
20260505054641 54 0 0.0 3.0 0.00 0.00 0.00 64 1012.9
20260505054140 54 0 0.0 4.0 0.00 0.00 0.00 64 1012.8
20260505053643 53 0 0.0 4.0 0.00 0.00 0.00 64 1012.8
20260505053158 53 0 0.0 3.0 0.00 0.00 0.00 64 1012.7
20260505052643 54 0 0.0 2.0 0.00 0.00 0.00 64 1012.9
20260505052141 54 0 0.0 2.0 0.00 0.00 0.00 64 1012.8
20260505051604 54 0 0.0 3.0 0.00 0.00 0.00 63 1013.0
20260505051116 54 0 0.0 3.0 0.00 0.00 0.00 63 1012.8
20260505050604 54 0 0.0 3.0 0.00 0.00 0.00 62 1012.7
20260505050104 54 0 0.0 3.0 0.00 0.00 0.00 62 1012.7
20260505041753 55 0 0.0 1.0 0.00 0.00 0.00 60 1012.8
20260505041254 55 0 0.0 1.0 0.00 0.00 0.00 60 1012.8
20260505040753 55 0 0.0 2.0 0.00 0.00 0.00 60 1012.9
20260505040253 55 0 0.0 5.0 0.00 0.00 0.00 59 1012.9
20260505035753 55 0 0.0 5.0 0.00 0.00 0.00 60 1012.8
20260505035139 55 0 0.0 1.0 0.00 0.00 0.00 60 1012.9
20260505034636 55 0 0.0 1.0 0.00 0.00 0.00 60 1012.8
20260505034136 55 0 0.0 4.0 0.00 0.00 0.00 60 1013.0
20260505033641 56 0 0.0 4.0 0.00 0.00 0.00 60 1013.1
20260505033044 56 0 0.0 2.0 0.00 0.00 0.00 60 1013.1
20260505032544 56 0 0.0 5.0 0.00 0.00 0.00 60 1013.2
20260505032044 56 258 1.0 5.0 0.00 0.00 0.00 60 1013.1
20260505031544 56 0 0.0 4.0 0.00 0.00 0.00 60 1013.2
20260505031044 56 0 0.0 4.0 0.00 0.00 0.00 60 1013.3
20260505030118 56 0 0.0 4.0 0.00 0.00 0.00 61 1013.3
20260505025618 56 0 0.0 4.0 0.00 0.00 0.00 60 1013.4
20260505025118 56 0 0.0 4.0 0.00 0.00 0.00 61 1013.5
20260505024514 56 0 0.0 4.0 0.00 0.00 0.00 60 1013.6
20260505024014 56 0 0.0 4.0 0.00 0.00 0.00 60 1013.7
20260505023519 56 0 0.0 2.0 0.00 0.00 0.00 60 1013.6
20260505023013 57 0 0.0 3.0 0.00 0.00 0.00 60 1013.4
20260505022526 57 0 0.0 3.0 0.00 0.00 0.00 60 1013.5
20260505022013 57 0 0.0 1.0 0.00 0.00 0.00 60 1013.4
20260505021513 57 0 0.0 1.0 0.00 0.00 0.00 60 1013.5
20260505021013 57 0 0.0 4.0 0.00 0.00 0.00 60 1013.4
20260505020513 57 0 0.0 4.0 0.00 0.00 0.00 60 1013.5
20260505020013 57 0 0.0 1.0 0.00 0.00 0.00 59 1013.6
20260505015514 57 0 0.0 1.0 0.00 0.00 0.00 59 1013.5
20260505015021 58 0 0.0 1.0 0.00 0.00 0.00 59 1013.6
20260505014524 58 0 0.0 1.0 0.00 0.00 0.00 59 1013.5
20260505014013 58 0 0.0 1.0 0.00 0.00 0.00 59 1013.5
20260505013513 58 0 0.0 0.0 0.00 0.00 0.00 58 1013.5
20260505013014 58 0 0.0 1.0 0.00 0.00 0.00 58 1013.4
20260505012513 58 0 0.0 1.0 0.00 0.00 0.00 58 1013.4
20260505012013 58 0 0.0 1.0 0.00 0.00 0.00 58 1013.3
20260505011513 59 0 0.0 1.0 0.00 0.00 0.00 58 1013.2
20260505010923 59 0 0.0 2.0 0.00 0.00 0.00 57 1013.2
20260505010423 59 0 0.0 2.0 0.00 0.00 0.00 57 1013.2
20260505005934 59 0 0.0 2.0 0.00 0.00 0.00 58 1013.1
20260505005423 59 0 0.0 1.0 0.00 0.00 0.00 58 1013.1
20260505004923 59 0 0.0 1.0 0.00 0.00 0.00 58 1013.0
20260505004423 59 0 0.0 1.0 0.00 0.00 0.00 57 1013.0
20260505003924 59 0 0.0 2.0 0.00 0.00 0.00 58 1013.0
20260505003423 60 0 0.0 2.0 0.00 0.00 0.00 58 1012.9
20260505002923 60 0 0.0 1.0 0.00 0.00 0.00 58 1012.9
20260505002423 60 0 0.0 1.0 0.00 0.00 0.00 57 1012.9
20260505001431 60 0 0.0 4.0 0.00 0.00 0.00 56 1013.0
20260505000931 60 0 0.0 4.0 0.00 0.00 0.00 57 1012.9
20260505000322 61 0 0.0 5.0 0.00 0.00 0.00 56 1012.9
20260504235827 61 0 0.0 5.0 0.00 0.00 0.00 56 1012.9
20260504235322 61 0 0.0 1.0 0.00 0.00 0.00 56 1012.9
20260504234822 61 0 0.0 2.0 0.00 0.00 0.00 56 1012.9
20260504234322 61 0 0.0 2.0 0.00 0.00 0.00 55 1012.8
20260504233822 62 0 0.0 2.0 0.00 0.00 0.00 56 1012.7
20260504233322 62 0 0.0 1.0 0.00 0.00 0.00 56 1012.7
20260504232824 62 0 0.0 3.0 0.00 0.00 0.00 56 1012.7
20260504232323 62 0 0.0 3.0 0.00 0.00 0.00 55 1012.6
20260504231822 62 0 0.0 1.0 0.00 0.00 0.00 55 1012.6
20260504231342 62 0 0.0 1.0 0.00 0.00 0.00 55 1012.5
20260504230822 63 0 0.0 2.0 0.00 0.00 0.00 54 1012.5
20260504230322 63 0 0.0 2.0 0.00 0.00 0.00 54 1012.5
20260504225827 63 0 0.0 2.0 0.00 0.00 0.00 55 1012.5
20260504225322 63 0 0.0 5.0 0.00 0.00 0.00 55 1012.5
20260504224822 64 0 0.0 5.0 0.00 0.00 0.00 54 1012.6
20260504224322 64 0 0.0 1.0 0.00 0.00 0.00 55 1012.5
20260504223824 64 0 0.0 1.0 0.00 0.00 0.00 55 1012.5
20260504223322 64 0 0.0 5.0 0.00 0.00 0.00 54 1012.5
20260504222822 64 0 0.0 5.0 0.00 0.00 0.00 53 1012.5
20260504222322 65 0 0.0 1.0 0.00 0.00 0.00 53 1012.5